UK-DMC 2

Last updated on Sun Dec 14 2025 00:02:38 GMT+0000 (Coordinated Universal Time)

1 35683U 09041C 25347.32168387 .00001319 00000+0 20048-3 0 9998 2 35683 97.8559 122.2074 0001450 97.3112 262.8263 14.75623310879152
UTC large
Height (km)
Speed (km/s)
/
Latitude / Longitude
Inclination (degrees)
Orbital Period (minutes)
Azimuth
Elevation
Range (km)
Doppler Factor

Next 0 passes for location: London (51.5072 / 0.1276)

Sorry there are no passes over London.